Regional Weather Roundup
Issued by NWS

Home | Current Version | Previous Version | Graphics & Text | Print | Product List | Glossary Off
Versions: 1 2 3 4 5 6 7 8 9 10 11 12 13 14 15 16 17 18 19 20 21 22 23 24 25 26 27 28 29 30 31 32 33 34 35 36 37 38 39 40 41 42 43 44 45 46 47 48 49 50

000
ASUS43 KMPX 211101
RWRMN
WEATHER ROUNDUP FOR MINNESOTA
NATIONAL WEATHER SERVICE TWIN CITIES/CHANHASSEN MN
500 AM CST SUN DEC 21 2014


NOTE: "FAIR" INDICATES FEW OR NO CLOUDS BELOW 12,000 FEET WITH NO
SIGNIFICANT WEATHER AND/OR OBSTRUCTIONS TO VISIBILITY. N/A MEANS
CURRENT SKY AND/OR WEATHER CONDITIONS ARE NOT AVAILABLE.

MNZ060>063-068>070-211200-
   Twin Cities Metro

CITY           SKY/WX    TMP DP  RH WIND       PRES   REMARKS
TWIN CITIES    CLOUDY    32  29  88 SE10      29.95F WCI  24
ST PAUL        CLOUDY    32  30  92 SE10      29.97F WCI  24
CRYSTAL        CLOUDY    33  30  88 SE12      29.93F FOG     WCI  24
BLAINE         CLOUDY    34  34 100 SE12      29.93F FOG     WCI  25
LAKEVILLE      CLOUDY    30  30 100 SE7       29.94F FOG     WCI  23
EDEN PRAIRIE   CLOUDY    33  30  88 S12       29.93F WCI  24
SOUTH ST PAUL  CLOUDY    33  31  94 SE6       29.96F FOG     WCI  27
LAKE ELMO      CLOUDY    32  32 100 SE9       29.97F FOG     WCI  24
$$
MNZ001>005-007-008-013>017-022>024-027-028-211200-
   Northwest Minnesota

CITY           SKY/WX    TMP DP  RH WIND       PRES   REMARKS
BEMIDJI        CLOUDY    28  28  96 S14G21    29.80F FOG     WCI  17
HALLOCK        MIX PCPN  30  28  93 CALM      29.71F
ROSEAU         CLOUDY    30  27  86 S12       29.77F WCI  21
WARROAD        LGT SNOW  30  27  86 S8        29.78F WCI  23
THIEF RVR FALL CLOUDY    30  28  93 S14G20    29.77F WCI  20
CROOKSTON      CLOUDY    30  30 100 S17G23    29.77F FOG     WCI  18
FOSSTON        CLOUDY    27  27 100 S17       29.79F FOG     WCI  14
DETROIT LAKES  CLOUDY    30  30 100 S15G21    29.80F FOG     WCI  19
MOORHEAD       CLOUDY    32  32 100 S14       29.80F FOG     WCI  22
PARK RAPIDS    CLOUDY    30  28  92 S13       29.82F FOG     WCI  20
MAHNOMEN       CLOUDY    29  28  94 S16       29.80S FOG     WCI  17
$$
MNZ006-009>011-018-025>026-211200-
   North Central Minnesota

CITY           SKY/WX    TMP DP  RH WIND       PRES   REMARKS
BAUDETTE       CLOUDY    29  26  89 S9        29.81F WCI  20
FLAG ISLAND    DRIZZLE   28  27  93 SE18      29.77F WCI  16
INTL FALLS     CLOUDY    28  25  88 SE6       29.84F WCI  22
WASKISH        CLOUDY    28  27  93 CALM      29.82F
BIG FORK       CLOUDY    28  27  93 S10G16    29.85F FOG     WCI  19
LONGVILLE      CLOUDY    28  28 100 S13       29.84F FOG     WCI  18
GRAND RAPIDS   CLOUDY    28  27  93 S12G20    29.86F WCI  18
CRANE LAKE     LGT SNOW  28  27  93 SE6       29.89F WCI  22
ORR            CLOUDY    28  25  86 S10G16    29.84F WCI  19
COOK           CLOUDY    28  27  93 S10G20    29.89F WCI  19
WALKER         CLOUDY    28  27  98 S8        29.83F FOG     WCI  19
$$
MNZ012-019>021-037-211200-
   Northeast Minnesota

CITY           SKY/WX    TMP DP  RH WIND       PRES   REMARKS
DULUTH         FRZ DRZL  29  26  89 S10       29.92F WCI  20
ELY            CLOUDY    28  27  93 S8        29.91F WCI  20
HIBBING        CLOUDY    29  25  85 S10G18    29.90F WCI  20
EVELETH        CLOUDY    30  28  93 S8        29.92F FOG     WCI  23
DULUTH HARBOR  CLOUDY    32  28  86 CALM      29.98F
SILVER BAY     CLOUDY    32  28  86 S8        29.95F WCI  25
GRAND MARAIS     N/A     34  28  79 SW15      30.02F WCI  24
G MARAIS ARPRT CLOUDY    27  23  86 S7        29.96F FOG     WCI  19
$$
MNZ029>031-032-039>041-046>048-054>057-064-211200-
   West Central Minnesota

CITY           SKY/WX    TMP DP  RH WIND       PRES   REMARKS
FERGUS FALLS   CLOUDY    30  28  93 S13       29.85F FOG     WCI  20
WHEATON        CLOUDY    28  27  93 S8        29.83F FOG     WCI  20
MORRIS         CLOUDY    30  30 100 S15       29.83F FOG     WCI  19
ALEXANDRIA     CLOUDY    30  28  92 S17       29.83F WCI  18
ELBOW LAKE     CLOUDY    30  29  98 S13       29.83F FOG     WCI  20
WADENA         CLOUDY    28  28 100 S13       29.83F FOG     WCI  18
GLENWOOD       CLOUDY    30  28  93 S16       29.85F FOG     WCI  19
APPLETON       CLOUDY    32  30  93 S8        29.84F WCI  25
BENSON         CLOUDY    32  28  86 S12       29.85F FOG     WCI  23
ORTONVILLE     CLOUDY    30  27  86 S8        29.82F FOG     WCI  23
MADISON        MOCLDY    36  34  93 S9        29.83F FOG
WILLMAR        CLOUDY    32  30  93 S7        29.88F FOG     WCI  26
$$
MNZ033>034-036-042>043-049>051-058-059-211200-
   Central Minnesota

CITY           SKY/WX    TMP DP  RH WIND       PRES   REMARKS
ST CLOUD       CLOUDY    33  29  85 S15       29.89F FOG     WCI  23
SAUK CENTRE    CLOUDY    30  29  96 S14       29.86F WCI  20
PAYNESVILLE    CLOUDY    29  29 100 SE9       29.88F FOG     WCI  20
AITKIN         CLOUDY    32  27  80 S7        29.88F HAZE    WCI  26
PINE RIVER     CLOUDY    28  28 100 S14       29.88F FOG     WCI  17
BRAINERD       CLOUDY    29  28  96 S15       29.88F FOG     WCI  18
STAPLES        CLOUDY    28  28 100 S13       29.84F FOG     WCI  18
LONG PRAIRIE   CLOUDY    30  30 100 SE14G21   29.86F FOG     WCI  20
LITTLE FALLS   CLOUDY    30  30 100 S10       29.89F FOG     WCI  21
LITCHFIELD     CLOUDY    34  34 100 SE8       29.88F FOG     WCI  27
BUFFALO        CLOUDY    32  30  93 SE8       29.91F FOG     WCI  25
MAPLE LAKE     CLOUDY    32  32  99 SE10      29.90F FOG     WCI  24
$$
MNZ037-044-045-052-053-211200-
   East Central Minnesota

CITY           SKY/WX    TMP DP  RH WIND       PRES   REMARKS
PRINCETON      CLOUDY    32  30  93 SE12      29.91F FOG     WCI  23
MORA           CLOUDY    32  28  86 S9        29.95F WCI  24
CAMBRIDGE      CLOUDY    34  27  75 SE7       29.92F WCI  28
RUSH CITY      CLOUDY    31  28  90 S5        29.95F WCI  26
MOOSE LAKE     CLOUDY    32  28  86 S7        29.91F WCI  26
HINCKLEY       CLOUDY    32  30  93 SE8       29.94F WCI  25
CLOQUET        CLOUDY    28  27  93 SE7       29.92F WCI  21
MCGREGOR       CLOUDY    30  28  93 S9        29.91F WCI  22
$$
MNZ071>073-080-081-089-090-097-098-211200-
   Southwest Minnesota

CITY           SKY/WX    TMP DP  RH WIND       PRES   REMARKS
MONTEVIDEO     CLOUDY    30  30 100 SW7       29.87F FOG     WCI  23
GRANITE FALLS  CLOUDY    32  30  94 S12       29.88S FOG     WCI  23
CANBY          CLOUDY    32  31  95 S6        29.84F FOG     WCI  26
MARSHALL       CLOUDY    30  27  86 S8        29.84F WCI  23
REDWOOD FALLS  CLOUDY    32  31  96 S15       29.86F FOG     WCI  22
OLIVIA         CLOUDY    32  30  93 S10       29.86F FOG     WCI  24
PIPESTONE      SNOW      30  30 100 S5        29.80F VSB 1/4 WCI  25
WINDOM         FOG       30  30 100 S9        29.86F VSB 1/2 WCI  22
WORTHINGTON    CLOUDY    30  28  93 S13       29.85F VSB 1/2 WCI  20
JACKSON        FOG       32  32 100 S10G16    29.88F VSB 1   WCI  24
TRACY          CLOUDY    32  31  96 S10G16    29.83F FOG     WCI  24
SLAYTON        FOG       30  30 100 S8        29.82F VSB 1/2 WCI  23
$$
MNZ065>067-074>077-082>085-091>093-211200-
   South Central Minnesota

CITY           SKY/WX    TMP DP  RH WIND       PRES   REMARKS
MANKATO        CLOUDY    34  28  80 S12       29.92F WCI  25
NEW ULM        CLOUDY    32  32 100 S10       29.90F FOG     WCI  24
ST JAMES       FOG       34  34 100 SE9       29.91F VSB 1   WCI  26
FAIRMONT       CLOUDY    34  28  80 S14       29.89F VSB 1/4 WCI  24
GLENCOE        CLOUDY    33  32  96 SE8       29.90F FOG     WCI  26
FARIBAULT      CLOUDY    34  30  86 SE8       29.94F FOG     WCI  27
OWATONNA       CLOUDY    34  30  86 SE14      29.94F FOG     WCI  24
WASECA         CLOUDY    32  32 100 SE10      29.94F FOG     WCI  24
ALBERT LEA     FOG       34  34 100 S12       29.94F VSB<1/4 WCI  25
$$
MNZ078>079-086>088-094>096-211200-
   Southeast Minnesota

CITY           SKY/WX    TMP DP  RH WIND       PRES   REMARKS
ROCHESTER      CLOUDY    32  31  96 S14       29.98F FOG     WCI  22
RED WING       CLOUDY    34  30  86 SE6       29.99F FOG     WCI  29
STANTON        CLOUDY    34  31  90 SE8       29.94F FOG     WCI  27
DODGE CENTER   FOG       32  32 100 S14       29.95F VSB 1   WCI  22
WINONA         CLOUDY    34  32  93 SE10      30.04F FOG     WCI  26
AUSTIN         FOG       32  32 100 S10       29.96F VSB 3/4 WCI  24
PRESTON        CLOUDY    31  31  99 SE10      30.00F FOG     WCI  22
$$
ABBREVIATIONS USED IN REMARKS
   TC - TEMPERATURES IN CELSIUS
  WCI - WIND CHILL INDEX
   HX - HEAT INDEX
  VSB - VISIBILITY
$$



USA.gov is the U.S. government's official web portal to all federal, state and local government web resources and services.